| time (UTC) | temp F | wind direction | speed MPH | gust MPH | rain 1hr in | rain 24hr in | rain mn in | humidity % | barometer mb |
| 20260506231821 | 58 | 21 | 0.0 | 0.0 | 0.00 | 0.31 | 0.31 | 99 | 1005.2 |
| 20260506231319 | 58 | 59 | 1.0 | 1.0 | 0.00 | 0.31 | 0.31 | 99 | 1005.1 |
| 20260506230816 | 58 | 12 | 0.0 | 0.0 | 0.00 | 0.31 | 0.31 | 99 | 1005.2 |
| 20260506230313 | 58 | 154 | 1.0 | 1.0 | 0.00 | 0.31 | 0.31 | 99 | 1005.0 |
| 20260506225809 | 58 | 79 | 1.0 | 1.0 | 0.00 | 0.31 | 0.31 | 99 | 1004.8 |
| 20260506225307 | 59 | 82 | 0.0 | 0.0 | 0.00 | 0.31 | 0.31 | 99 | 1004.9 |
| 20260506224803 | 59 | 36 | 0.0 | 0.0 | 0.00 | 0.31 | 0.31 | 99 | 1004.9 |
| 20260506224300 | 59 | 50 | 0.0 | 1.0 | 0.00 | 0.31 | 0.31 | 99 | 1004.9 |
| 20260506223756 | 59 | 45 | 0.0 | 0.0 | 0.00 | 0.31 | 0.31 | 99 | 1004.9 |
| 20260506223252 | 59 | 175 | 2.0 | 2.0 | 0.00 | 0.31 | 0.31 | 99 | 1004.9 |
| 20260506222749 | 59 | 166 | 1.0 | 1.0 | 0.00 | 0.31 | 0.31 | 99 | 1004.9 |
| 20260506222244 | 59 | 353 | 0.0 | 1.0 | 0.00 | 0.31 | 0.31 | 99 | 1004.9 |
| 20260506221743 | 59 | 223 | 1.0 | 1.0 | 0.07 | 0.31 | 0.31 | 99 | 1004.7 |
| 20260506221240 | 59 | 21 | 0.0 | 0.0 | 0.07 | 0.31 | 0.31 | 99 | 1004.6 |
| 20260506220737 | 59 | 16 | 0.0 | 0.0 | 0.00 | 0.30 | 0.30 | 99 | 1004.9 |
| 20260506220232 | 59 | 192 | 1.0 | 2.0 | 0.00 | 0.30 | 0.30 | 99 | 1005.0 |
| 20260506215729 | 59 | 67 | 1.0 | 1.0 | 0.05 | 0.30 | 0.30 | 99 | 1004.9 |
| 20260506215225 | 59 | 103 | 1.0 | 1.0 | 0.17 | 0.30 | 0.30 | 99 | 1004.9 |
| 20260506214722 | 59 | 23 | 0.0 | 0.0 | 0.12 | 0.29 | 0.29 | 99 | 1004.7 |
| 20260506214219 | 59 | 352 | 1.0 | 1.0 | 0.12 | 0.28 | 0.28 | 99 | 1004.7 |
| 20260506213717 | 58 | 17 | 0.0 | 0.0 | 0.19 | 0.27 | 0.27 | 99 | 1004.9 |
| 20260506213214 | 58 | 46 | 0.0 | 1.0 | 0.19 | 0.25 | 0.25 | 99 | 1004.9 |
| 20260506212711 | 58 | 42 | 1.0 | 2.0 | 0.24 | 0.24 | 0.24 | 99 | 1005.1 |
| 20260506212206 | 58 | 59 | 0.0 | 1.0 | 0.24 | 0.22 | 0.22 | 99 | 1004.8 |
| 20260506211702 | 58 | 33 | 0.0 | 0.0 | 0.19 | 0.20 | 0.20 | 99 | 1005.0 |
| 20260506211158 | 58 | 357 | 0.0 | 1.0 | 0.19 | 0.18 | 0.18 | 99 | 1005.1 |
| 20260506210655 | 58 | 281 | 1.0 | 1.0 | 0.12 | 0.17 | 0.17 | 99 | 1005.0 |
| 20260506210152 | 58 | 181 | 2.0 | 2.0 | 0.00 | 0.15 | 0.15 | 99 | 1005.1 |
| 20260506205650 | 58 | 0 | 0.0 | 0.0 | 0.00 | 0.15 | 0.15 | 99 | 1005.0 |
| 20260506205144 | 58 | 15 | 1.0 | 1.0 | 0.05 | 0.15 | 0.15 | 99 | 1004.9 |
| 20260506204642 | 58 | 23 | 0.0 | 0.0 | 0.05 | 0.15 | 0.15 | 99 | 1004.9 |
| 20260506204139 | 58 | 357 | 1.0 | 1.0 | 0.00 | 0.14 | 0.14 | 99 | 1005.1 |
| 20260506203637 | 58 | 170 | 1.0 | 1.0 | 0.00 | 0.14 | 0.14 | 99 | 1005.2 |
| 20260506203133 | 58 | 51 | 1.0 | 1.0 | 0.00 | 0.14 | 0.14 | 99 | 1005.1 |
| 20260506202632 | 58 | 273 | 1.0 | 2.0 | 0.00 | 0.14 | 0.14 | 99 | 1005.1 |
| 20260506202127 | 58 | 198 | 4.0 | 6.0 | 0.00 | 0.14 | 0.14 | 99 | 1005.1 |
| 20260506201625 | 58 | 193 | 3.0 | 3.0 | 0.07 | 0.14 | 0.14 | 99 | 1005.3 |
| 20260506201121 | 58 | 108 | 3.0 | 3.0 | 0.07 | 0.14 | 0.14 | 99 | 1005.2 |
| 20260506200618 | 58 | 197 | 1.0 | 2.0 | 0.00 | 0.13 | 0.13 | 99 | 1005.5 |
| 20260506200115 | 58 | 211 | 1.0 | 1.0 | 0.00 | 0.13 | 0.13 | 99 | 1005.3 |
| 20260506195611 | 58 | 193 | 1.0 | 1.0 | 0.05 | 0.13 | 0.13 | 99 | 1005.5 |
| 20260506195108 | 58 | 234 | 2.0 | 2.0 | 0.05 | 0.13 | 0.13 | 99 | 1005.4 |
| 20260506194605 | 58 | 222 | 0.0 | 1.0 | 0.00 | 0.12 | 0.12 | 99 | 1005.6 |
| 20260506194101 | 58 | 153 | 2.0 | 2.0 | 0.00 | 0.12 | 0.12 | 99 | 1005.8 |
| 20260506193559 | 58 | 2 | 0.0 | 1.0 | 0.07 | 0.12 | 0.12 | 99 | 1005.6 |
| 20260506193056 | 58 | 121 | 1.0 | 2.0 | 0.07 | 0.12 | 0.12 | 99 | 1005.8 |
| 20260506192553 | 59 | 326 | 2.0 | 2.0 | 0.00 | 0.11 | 0.11 | 99 | 1005.8 |
| 20260506192049 | 59 | 347 | 0.0 | 0.0 | 0.05 | 0.11 | 0.11 | 99 | 1005.7 |
| 20260506191546 | 59 | 266 | 2.0 | 2.0 | 0.05 | 0.11 | 0.11 | 99 | 1005.7 |
| 20260506191041 | 59 | 197 | 1.0 | 2.0 | 0.00 | 0.10 | 0.10 | 99 | 1005.7 |
| 20260506190539 | 59 | 198 | 2.0 | 2.0 | 0.07 | 0.10 | 0.10 | 99 | 1005.9 |
| 20260506190036 | 59 | 64 | 1.0 | 2.0 | 0.12 | 0.10 | 0.10 | 99 | 1005.9 |
| 20260506185533 | 59 | 172 | 3.0 | 3.0 | 0.05 | 0.09 | 0.09 | 99 | 1006.0 |
| 20260506185030 | 59 | 66 | 1.0 | 1.0 | 0.07 | 0.08 | 0.08 | 98 | 1006.2 |
| 20260506184527 | 59 | 121 | 1.0 | 1.0 | 0.07 | 0.08 | 0.08 | 98 | 1006.2 |
| 20260506184024 | 59 | 184 | 3.0 | 6.0 | 0.00 | 0.07 | 0.07 | 98 | 1006.1 |
| 20260506183520 | 59 | 58 | 2.0 | 2.0 | 0.07 | 0.07 | 0.07 | 98 | 1006.4 |
| 20260506183017 | 59 | 219 | 2.0 | 2.0 | 0.07 | 0.07 | 0.07 | 98 | 1006.0 |
| 20260506182514 | 59 | 175 | 2.0 | 2.0 | 0.00 | 0.06 | 0.06 | 97 | 1006.4 |
| 20260506182011 | 60 | 136 | 1.0 | 1.0 | 0.00 | 0.06 | 0.06 | 97 | 1006.3 |
| 20260506181509 | 60 | 21 | 0.0 | 0.0 | 0.00 | 0.06 | 0.06 | 97 | 1006.5 |
| 20260506181006 | 60 | 84 | 1.0 | 2.0 | 0.00 | 0.06 | 0.06 | 97 | 1006.1 |
| 20260506180502 | 60 | 171 | 2.0 | 2.0 | 0.00 | 0.06 | 0.06 | 97 | 1006.3 |
| 20260506175959 | 61 | 254 | 2.0 | 2.0 | 0.05 | 0.06 | 0.06 | 97 | 1005.9 |
| 20260506175455 | 61 | 202 | 4.0 | 5.0 | 0.05 | 0.06 | 0.06 | 96 | 1005.9 |
| 20260506174952 | 61 | 61 | 0.0 | 1.0 | 0.00 | 0.05 | 0.05 | 96 | 1006.3 |
| 20260506174450 | 61 | 56 | 1.0 | 1.0 | 0.07 | 0.05 | 0.05 | 95 | 1006.4 |
| 20260506173946 | 61 | 3 | 1.0 | 1.0 | 0.07 | 0.05 | 0.05 | 95 | 1006.2 |
| 20260506173444 | 62 | 27 | 0.0 | 0.0 | 0.05 | 0.04 | 0.04 | 94 | 1006.0 |
| 20260506172941 | 62 | 75 | 0.0 | 1.0 | 0.12 | 0.04 | 0.04 | 93 | 1006.5 |
| 20260506172438 | 62 | 197 | 3.0 | 3.0 | 0.07 | 0.03 | 0.03 | 92 | 1006.7 |
| 20260506171934 | 63 | 74 | 1.0 | 2.0 | 0.05 | 0.02 | 0.02 | 91 | 1006.8 |
| 20260506171432 | 63 | 246 | 0.0 | 1.0 | 0.12 | 0.02 | 0.02 | 90 | 1006.9 |
| 20260506170930 | 64 | 82 | 1.0 | 2.0 | 0.07 | 0.01 | 0.01 | 88 | 1007.1 |
| 20260506170425 | 65 | 316 | 1.0 | 1.0 | 0.00 | 0.00 | 0.00 | 86 | 1007.1 |
| 20260506165919 | 65 | 184 | 2.0 | 3.0 | 0.00 | 0.00 | 0.00 | 83 | 1007.1 |
| 20260506165417 | 66 | 131 | 1.0 | 2.0 | 0.00 | 0.00 | 0.00 | 82 | 1006.8 |
| 20260506164913 | 66 | 52 | 2.0 | 2.0 | 0.00 | 0.00 | 0.00 | 80 | 1007.1 |
| 20260506164409 | 66 | 17 | 1.0 | 1.0 | 0.00 | 0.00 | 0.00 | 80 | 1006.9 |
| 20260506163908 | 66 | 46 | 1.0 | 1.0 | 0.00 | 0.00 | 0.00 | 80 | 1006.8 |
| 20260506163401 | 66 | 322 | 1.0 | 1.0 | 0.00 | 0.00 | 0.00 | 79 | 1006.8 |
| 20260506162857 | 67 | 353 | 1.0 | 1.0 | 0.00 | 0.00 | 0.00 | 79 | 1006.8 |
| 20260506162355 | 67 | 13 | 0.0 | 0.0 | 0.00 | 0.00 | 0.00 | 78 | 1006.9 |
| 20260506161852 | 67 | 33 | 0.0 | 0.0 | 0.00 | 0.00 | 0.00 | 79 | 1007.1 |
| 20260506161350 | 67 | 349 | 0.0 | 1.0 | 0.00 | 0.00 | 0.00 | 78 | 1007.1 |
| 20260506160847 | 66 | 30 | 1.0 | 1.0 | 0.00 | 0.00 | 0.00 | 79 | 1007.4 |
| 20260506160344 | 67 | 192 | 1.0 | 2.0 | 0.00 | 0.00 | 0.00 | 78 | 1007.1 |
| 20260506155843 | 66 | 17 | 1.0 | 1.0 | 0.00 | 0.00 | 0.00 | 79 | 1007.3 |
| 20260506155339 | 66 | 39 | 1.0 | 1.0 | 0.00 | 0.00 | 0.00 | 79 | 1007.3 |
| 20260506153456 | 64 | 5 | 0.0 | 0.0 | 0.00 | 0.00 | 0.00 | 81 | 1007.7 |
| 20260506152954 | 64 | 30 | 0.0 | 1.0 | 0.00 | 0.00 | 0.00 | 81 | 1007.7 |
| 20260506152450 | 64 | 322 | 0.0 | 1.0 | 0.00 | 0.00 | 0.00 | 81 | 1007.7 |
| 20260506151949 | 64 | 2 | 0.0 | 0.0 | 0.00 | 0.00 | 0.00 | 81 | 1007.9 |
| 20260506151446 | 64 | 66 | 0.0 | 1.0 | 0.00 | 0.00 | 0.00 | 81 | 1007.9 |
| 20260506150944 | 64 | 81 | 1.0 | 1.0 | 0.00 | 0.00 | 0.00 | 81 | 1008.1 |
| 20260506150439 | 64 | 164 | 2.0 | 2.0 | 0.00 | 0.00 | 0.00 | 80 | 1008.0 |
| 20260506145937 | 64 | 254 | 1.0 | 2.0 | 0.00 | 0.00 | 0.00 | 81 | 1008.1 |
| 20260506145433 | 64 | 285 | 1.0 | 1.0 | 0.00 | 0.00 | 0.00 | 81 | 1008.1 |
| 20260506144931 | 64 | 323 | 1.0 | 1.0 | 0.00 | 0.00 | 0.00 | 82 | 1008.2 |
| 20260506144427 | 64 | 2 | 0.0 | 1.0 | 0.00 | 0.00 | 0.00 | 82 | 1008.1 |
| 20260506143925 | 64 | 26 | 0.0 | 0.0 | 0.00 | 0.00 | 0.00 | 82 | 1008.2 |
| 20260506143422 | 64 | 3 | 1.0 | 1.0 | 0.00 | 0.00 | 0.00 | 82 | 1008.2 |
| 20260506142920 | 64 | 165 | 1.0 | 1.0 | 0.00 | 0.00 | 0.00 | 82 | 1008.2 |
| 20260506142418 | 63 | 2 | 0.0 | 0.0 | 0.00 | 0.00 | 0.00 | 83 | 1008.4 |
| 20260506141916 | 63 | 10 | 0.0 | 1.0 | 0.00 | 0.00 | 0.00 | 83 | 1008.4 |
| 20260506141414 | 63 | 322 | 1.0 | 1.0 | 0.00 | 0.00 | 0.00 | 83 | 1008.0 |
| 20260506140912 | 63 | 195 | 2.0 | 3.0 | 0.00 | 0.00 | 0.00 | 83 | 1008.2 |
| 20260506140408 | 62 | 120 | 1.0 | 1.0 | 0.00 | 0.00 | 0.00 | 84 | 1008.4 |
| 20260506135905 | 62 | 164 | 2.0 | 3.0 | 0.00 | 0.00 | 0.00 | 84 | 1008.4 |
| 20260506135402 | 62 | 165 | 4.0 | 5.0 | 0.00 | 0.00 | 0.00 | 84 | 1008.2 |
| 20260506134858 | 62 | 227 | 3.0 | 3.0 | 0.00 | 0.00 | 0.00 | 84 | 1008.4 |
| 20260506134355 | 62 | 31 | 1.0 | 1.0 | 0.00 | 0.00 | 0.00 | 84 | 1008.0 |
| 20260506133852 | 62 | 196 | 3.0 | 5.0 | 0.00 | 0.00 | 0.00 | 84 | 1007.9 |
| 20260506133348 | 61 | 166 | 2.0 | 2.0 | 0.00 | 0.00 | 0.00 | 85 | 1008.1 |
| 20260506132845 | 61 | 184 | 5.0 | 6.0 | 0.00 | 0.00 | 0.00 | 86 | 1008.0 |
| 20260506132342 | 61 | 63 | 1.0 | 1.0 | 0.00 | 0.00 | 0.00 | 86 | 1008.0 |
| 20260506131840 | 61 | 180 | 1.0 | 2.0 | 0.00 | 0.00 | 0.00 | 86 | 1008.1 |
| 20260506131336 | 61 | 111 | 2.0 | 2.0 | 0.00 | 0.00 | 0.00 | 86 | 1008.2 |
| 20260506130834 | 61 | 4 | 0.0 | 0.0 | 0.00 | 0.00 | 0.00 | 87 | 1008.2 |
| 20260506130330 | 61 | 13 | 0.0 | 0.0 | 0.00 | 0.00 | 0.00 | 87 | 1008.4 |
| 20260506125828 | 61 | 11 | 0.0 | 0.0 | 0.00 | 0.00 | 0.00 | 87 | 1008.3 |
| 20260506125326 | 60 | 24 | 0.0 | 1.0 | 0.00 | 0.00 | 0.00 | 87 | 1008.3 |
| 20260506124824 | 60 | 11 | 0.0 | 1.0 | 0.00 | 0.00 | 0.00 | 88 | 1008.1 |
| 20260506124321 | 60 | 29 | 1.0 | 1.0 | 0.00 | 0.00 | 0.00 | 88 | 1008.4 |
| 20260506123818 | 60 | 299 | 0.0 | 1.0 | 0.00 | 0.00 | 0.00 | 88 | 1008.4 |
| 20260506123317 | 60 | 351 | 0.0 | 1.0 | 0.00 | 0.00 | 0.00 | 88 | 1008.7 |
| 20260506122814 | 59 | 79 | 0.0 | 0.0 | 0.00 | 0.00 | 0.00 | 89 | 1008.8 |
| 20260506122311 | 59 | 31 | 1.0 | 1.0 | 0.00 | 0.00 | 0.00 | 89 | 1008.6 |
| 20260506121809 | 59 | 155 | 1.0 | 1.0 | 0.00 | 0.00 | 0.00 | 90 | 1008.7 |
| 20260506121305 | 59 | 79 | 1.0 | 1.0 | 0.00 | 0.00 | 0.00 | 90 | 1008.4 |
| 20260506120803 | 58 | 199 | 1.0 | 2.0 | 0.00 | 0.00 | 0.00 | 90 | 1008.6 |
| 20260506120300 | 58 | 27 | 0.0 | 0.0 | 0.00 | 0.00 | 0.00 | 91 | 1008.4 |
| 20260506115758 | 58 | 21 | 0.0 | 0.0 | 0.00 | 0.00 | 0.00 | 91 | 1008.6 |
| 20260506115256 | 58 | 220 | 1.0 | 1.0 | 0.00 | 0.00 | 0.00 | 91 | 1008.8 |
| 20260506114753 | 58 | 351 | 1.0 | 1.0 | 0.00 | 0.00 | 0.00 | 92 | 1008.4 |
| 20260506114251 | 57 | 148 | 1.0 | 1.0 | 0.00 | 0.00 | 0.00 | 92 | 1008.3 |
| 20260506113749 | 57 | 12 | 1.0 | 1.0 | 0.00 | 0.00 | 0.00 | 92 | 1008.4 |
| 20260506113246 | 57 | 348 | 1.0 | 1.0 | 0.00 | 0.00 | 0.00 | 93 | 1008.6 |
| 20260506112742 | 57 | 43 | 0.0 | 1.0 | 0.00 | 0.00 | 0.00 | 93 | 1008.8 |
| 20260506112240 | 57 | 47 | 0.0 | 1.0 | 0.00 | 0.00 | 0.00 | 93 | 1008.5 |
| 20260506111737 | 57 | 157 | 1.0 | 2.0 | 0.00 | 0.00 | 0.00 | 93 | 1008.6 |
| 20260506111235 | 57 | 54 | 1.0 | 2.0 | 0.00 | 0.00 | 0.00 | 93 | 1008.6 |
| 20260506110732 | 56 | 6 | 0.0 | 1.0 | 0.00 | 0.00 | 0.00 | 93 | 1008.6 |
| 20260506110230 | 56 | 97 | 1.0 | 1.0 | 0.00 | 0.00 | 0.00 | 93 | 1008.7 |
| 20260506105726 | 56 | 187 | 1.0 | 2.0 | 0.00 | 0.00 | 0.00 | 93 | 1009.1 |
| 20260506105223 | 55 | 76 | 1.0 | 1.0 | 0.00 | 0.00 | 0.00 | 95 | 1009.0 |
| 20260506104721 | 55 | 23 | 0.0 | 0.0 | 0.00 | 0.00 | 0.00 | 95 | 1008.9 |
| 20260506104219 | 55 | 22 | 0.0 | 0.0 | 0.00 | 0.00 | 0.00 | 95 | 1009.0 |
| 20260506103715 | 55 | 53 | 1.0 | 1.0 | 0.00 | 0.00 | 0.00 | 95 | 1008.6 |
| 20260506103212 | 55 | 61 | 1.0 | 1.0 | 0.00 | 0.00 | 0.00 | 95 | 1008.8 |
| 20260506102710 | 55 | 68 | 0.0 | 1.0 | 0.00 | 0.00 | 0.00 | 95 | 1008.8 |
| 20260506102208 | 55 | 76 | 1.0 | 1.0 | 0.00 | 0.00 | 0.00 | 95 | 1008.8 |
| 20260506101705 | 55 | 58 | 0.0 | 1.0 | 0.00 | 0.00 | 0.00 | 95 | 1008.6 |
| 20260506101201 | 54 | 59 | 0.0 | 1.0 | 0.00 | 0.00 | 0.00 | 96 | 1008.6 |
| 20260506100659 | 54 | 57 | 0.0 | 0.0 | 0.00 | 0.00 | 0.00 | 96 | 1008.5 |
| 20260506100157 | 54 | 54 | 1.0 | 1.0 | 0.00 | 0.00 | 0.00 | 95 | 1008.4 |
| 20260506095656 | 54 | 47 | 0.0 | 1.0 | 0.00 | 0.00 | 0.00 | 95 | 1008.5 |
| 20260506095152 | 55 | 31 | 0.0 | 0.0 | 0.00 | 0.00 | 0.00 | 95 | 1008.4 |
| 20260506094649 | 55 | 46 | 0.0 | 0.0 | 0.00 | 0.00 | 0.00 | 95 | 1008.4 |
| 20260506094147 | 55 | 65 | 1.0 | 1.0 | 0.00 | 0.00 | 0.00 | 95 | 1008.1 |
| 20260506093646 | 55 | 46 | 0.0 | 1.0 | 0.00 | 0.00 | 0.00 | 95 | 1008.6 |
| 20260506093142 | 55 | 43 | 0.0 | 0.0 | 0.00 | 0.00 | 0.00 | 94 | 1008.6 |
| 20260506092640 | 55 | 47 | 0.0 | 0.0 | 0.00 | 0.00 | 0.00 | 94 | 1008.7 |
| 20260506092137 | 55 | 29 | 0.0 | 0.0 | 0.00 | 0.00 | 0.00 | 94 | 1008.4 |
| 20260506091635 | 55 | 30 | 0.0 | 0.0 | 0.00 | 0.00 | 0.00 | 94 | 1008.5 |
| 20260506091132 | 55 | 138 | 1.0 | 1.0 | 0.00 | 0.00 | 0.00 | 94 | 1008.5 |
| 20260506090630 | 55 | 43 | 0.0 | 1.0 | 0.00 | 0.00 | 0.00 | 94 | 1008.6 |
| 20260506090126 | 55 | 69 | 1.0 | 1.0 | 0.00 | 0.00 | 0.00 | 94 | 1008.3 |
| 20260506085623 | 55 | 14 | 0.0 | 0.0 | 0.00 | 0.00 | 0.00 | 94 | 1008.6 |
| 20260506085119 | 55 | 11 | 0.0 | 0.0 | 0.00 | 0.00 | 0.00 | 93 | 1008.3 |
| 20260506084616 | 55 | 352 | 1.0 | 1.0 | 0.00 | 0.00 | 0.00 | 93 | 1008.5 |
| 20260506084113 | 55 | 16 | 0.0 | 0.0 | 0.00 | 0.00 | 0.00 | 93 | 1008.5 |
| 20260506083610 | 55 | 16 | 0.0 | 0.0 | 0.00 | 0.00 | 0.00 | 92 | 1008.6 |
| 20260506083107 | 55 | 10 | 0.0 | 0.0 | 0.00 | 0.00 | 0.00 | 92 | 1008.6 |
| 20260506082604 | 56 | 13 | 0.0 | 0.0 | 0.00 | 0.00 | 0.00 | 91 | 1008.7 |
| 20260506082100 | 56 | 24 | 0.0 | 0.0 | 0.00 | 0.00 | 0.00 | 91 | 1008.7 |
| 20260506081558 | 56 | 27 | 1.0 | 1.0 | 0.00 | 0.00 | 0.00 | 91 | 1008.7 |
| 20260506081055 | 56 | 263 | 2.0 | 2.0 | 0.00 | 0.00 | 0.00 | 91 | 1008.5 |
| 20260506080553 | 56 | 336 | 1.0 | 1.0 | 0.00 | 0.00 | 0.00 | 90 | 1008.4 |
| 20260506073033 | 57 | 16 | 0.0 | 0.0 | 0.00 | 0.00 | 0.00 | 88 | 1008.5 |
| 20260506072530 | 57 | 4 | 0.0 | 0.0 | 0.00 | 0.00 | 0.00 | 87 | 1008.5 |
| 20260506072028 | 57 | 343 | 1.0 | 1.0 | 0.00 | 0.00 | 0.00 | 87 | 1008.7 |
| 20260506071526 | 57 | 12 | 0.0 | 0.0 | 0.00 | 0.00 | 0.00 | 86 | 1008.6 |
| 20260506071023 | 58 | 340 | 1.0 | 1.0 | 0.00 | 0.00 | 0.00 | 86 | 1008.4 |
| 20260506070520 | 58 | 34 | 0.0 | 0.0 | 0.00 | 0.00 | 0.00 | 84 | 1008.4 |
| 20260506062457 | 57 | 21 | 0.0 | 0.0 | 0.00 | 0.00 | 0.00 | 85 | 1008.4 |
| 20260506061954 | 58 | 21 | 0.0 | 0.0 | 0.00 | 0.00 | 0.00 | 84 | 1008.2 |
| 20260506061450 | 58 | 21 | 0.0 | 0.0 | 0.00 | 0.00 | 0.00 | 83 | 1008.3 |
| 20260506060948 | 58 | 19 | 0.0 | 0.0 | 0.00 | 0.00 | 0.00 | 83 | 1008.1 |
| 20260506060446 | 58 | 51 | 1.0 | 1.0 | 0.00 | 0.00 | 0.00 | 83 | 1008.3 |
| 20260506050915 | 59 | 17 | 1.0 | 1.0 | 0.00 | 0.00 | 0.00 | 80 | 1008.5 |
| 20260506050412 | 59 | 12 | 0.0 | 0.0 | 0.00 | 0.00 | 0.00 | 80 | 1008.5 |
| 20260506044903 | 59 | 0 | 0.0 | 0.0 | 0.00 | 0.00 | 0.00 | 80 | 1008.7 |
| 20260506044401 | 59 | 0 | 0.0 | 0.0 | 0.00 | 0.00 | 0.00 | 80 | 1008.6 |
| 20260506043857 | 59 | 0 | 1.0 | 1.0 | 0.00 | 0.00 | 0.00 | 80 | 1008.7 |
| 20260506043354 | 59 | 356 | 0.0 | 1.0 | 0.00 | 0.00 | 0.00 | 79 | 1008.5 |
| 20260506042852 | 60 | 15 | 0.0 | 0.0 | 0.00 | 0.00 | 0.00 | 78 | 1008.7 |
| 20260506042351 | 60 | 13 | 0.0 | 0.0 | 0.00 | 0.00 | 0.00 | 78 | 1008.4 |
| 20260506041850 | 59 | 15 | 0.0 | 0.0 | 0.00 | 0.00 | 0.00 | 79 | 1008.5 |
| 20260506041346 | 60 | 17 | 1.0 | 1.0 | 0.00 | 0.00 | 0.00 | 78 | 1008.8 |
| 20260506040843 | 60 | 3 | 1.0 | 1.0 | 0.00 | 0.00 | 0.00 | 77 | 1008.8 |
| 20260506040341 | 60 | 357 | 0.0 | 1.0 | 0.00 | 0.00 | 0.00 | 77 | 1008.7 |
| 20260506035837 | 60 | 350 | 1.0 | 1.0 | 0.00 | 0.00 | 0.00 | 77 | 1008.8 |
| 20260506035335 | 60 | 6 | 0.0 | 1.0 | 0.00 | 0.00 | 0.00 | 76 | 1008.7 |
| 20260506034832 | 60 | 3 | 0.0 | 0.0 | 0.00 | 0.00 | 0.00 | 77 | 1008.7 |
| 20260506034329 | 60 | 10 | 0.0 | 0.0 | 0.00 | 0.00 | 0.00 | 76 | 1008.5 |
| 20260506033826 | 60 | 342 | 1.0 | 1.0 | 0.00 | 0.00 | 0.00 | 76 | 1008.7 |
| 20260506033323 | 61 | 1 | 0.0 | 1.0 | 0.00 | 0.00 | 0.00 | 75 | 1008.7 |
| 20260506032819 | 61 | 20 | 0.0 | 0.0 | 0.00 | 0.00 | 0.00 | 74 | 1008.8 |
| 20260506032316 | 61 | 354 | 0.0 | 0.0 | 0.00 | 0.00 | 0.00 | 74 | 1008.5 |
| 20260506031813 | 61 | 12 | 0.0 | 0.0 | 0.00 | 0.00 | 0.00 | 73 | 1008.6 |
| 20260506031311 | 62 | 17 | 0.0 | 0.0 | 0.00 | 0.00 | 0.00 | 73 | 1008.9 |
| 20260506030808 | 62 | 304 | 1.0 | 1.0 | 0.00 | 0.00 | 0.00 | 73 | 1008.6 |
| 20260506030306 | 62 | 13 | 0.0 | 0.0 | 0.00 | 0.00 | 0.00 | 72 | 1008.6 |
| 20260506025802 | 62 | 343 | 1.0 | 1.0 | 0.00 | 0.00 | 0.00 | 72 | 1008.9 |
| 20260506025259 | 62 | 319 | 1.0 | 1.0 | 0.00 | 0.00 | 0.00 | 72 | 1008.8 |
| 20260506024756 | 62 | 346 | 1.0 | 1.0 | 0.00 | 0.00 | 0.00 | 71 | 1008.7 |
| 20260506024253 | 63 | 24 | 0.0 | 1.0 | 0.00 | 0.00 | 0.00 | 71 | 1008.8 |
| 20260506023749 | 63 | 338 | 1.0 | 1.0 | 0.00 | 0.00 | 0.00 | 71 | 1008.6 |
| 20260506023246 | 63 | 44 | 0.0 | 1.0 | 0.00 | 0.00 | 0.00 | 71 | 1008.6 |
| 20260506022742 | 63 | 323 | 1.0 | 1.0 | 0.00 | 0.00 | 0.00 | 70 | 1008.5 |
| 20260506022241 | 63 | 279 | 1.0 | 2.0 | 0.00 | 0.00 | 0.00 | 70 | 1008.5 |
| 20260506021739 | 64 | 198 | 1.0 | 2.0 | 0.00 | 0.00 | 0.00 | 70 | 1008.6 |
| 20260506021235 | 64 | 177 | 1.0 | 2.0 | 0.00 | 0.00 | 0.00 | 70 | 1008.4 |
| 20260506020732 | 64 | 40 | 1.0 | 1.0 | 0.00 | 0.00 | 0.00 | 70 | 1008.5 |
| 20260506020230 | 64 | 31 | 1.0 | 1.0 | 0.00 | 0.00 | 0.00 | 70 | 1008.5 |
| 20260506015727 | 64 | 127 | 2.0 | 3.0 | 0.00 | 0.00 | 0.00 | 70 | 1008.5 |
| 20260506015225 | 64 | 326 | 0.0 | 1.0 | 0.00 | 0.00 | 0.00 | 70 | 1008.4 |
| 20260506014721 | 65 | 27 | 1.0 | 1.0 | 0.00 | 0.00 | 0.00 | 69 | 1008.7 |
| 20260506014217 | 65 | 261 | 1.0 | 2.0 | 0.00 | 0.00 | 0.00 | 68 | 1008.3 |
| 20260506013715 | 65 | 0 | 0.0 | 1.0 | 0.00 | 0.00 | 0.00 | 68 | 1008.5 |
| 20260506013212 | 65 | 327 | 1.0 | 1.0 | 0.00 | 0.00 | 0.00 | 69 | 1008.2 |
| 20260506012708 | 65 | 357 | 1.0 | 1.0 | 0.00 | 0.00 | 0.00 | 68 | 1008.2 |
| 20260506012205 | 65 | 14 | 0.0 | 0.0 | 0.00 | 0.00 | 0.00 | 68 | 1008.2 |
| 20260506011703 | 66 | 11 | 0.0 | 0.0 | 0.00 | 0.00 | 0.00 | 68 | 1008.0 |
| 20260506011158 | 66 | 26 | 0.0 | 0.0 | 0.00 | 0.00 | 0.00 | 66 | 1007.8 |
| 20260506010657 | 66 | 163 | 2.0 | 2.0 | 0.00 | 0.00 | 0.00 | 66 | 1007.9 |
| 20260506010154 | 67 | 61 | 1.0 | 2.0 | 0.00 | 0.00 | 0.00 | 65 | 1007.8 |
| 20260506005651 | 67 | 62 | 1.0 | 1.0 | 0.00 | 0.00 | 0.00 | 65 | 1007.7 |
| 20260506005148 | 67 | 185 | 2.0 | 2.0 | 0.00 | 0.00 | 0.00 | 64 | 1007.6 |
| 20260506004644 | 67 | 31 | 0.0 | 1.0 | 0.00 | 0.00 | 0.00 | 64 | 1007.8 |
| 20260506004141 | 68 | 359 | 0.0 | 0.0 | 0.00 | 0.00 | 0.00 | 63 | 1007.6 |
| 20260506003637 | 68 | 49 | 1.0 | 1.0 | 0.00 | 0.00 | 0.00 | 63 | 1007.8 |
| 20260506003134 | 68 | 148 | 3.0 | 3.0 | 0.00 | 0.00 | 0.00 | 63 | 1007.6 |
| 20260506002630 | 68 | 151 | 0.0 | 1.0 | 0.00 | 0.00 | 0.00 | 62 | 1007.3 |
| 20260506002126 | 69 | 313 | 1.0 | 1.0 | 0.00 | 0.00 | 0.00 | 62 | 1007.6 |
| 20260506001622 | 69 | 157 | 1.0 | 1.0 | 0.00 | 0.00 | 0.00 | 62 | 1007.2 |
| 20260506001119 | 69 | 4 | 0.0 | 1.0 | 0.00 | 0.00 | 0.00 | 62 | 1007.3 |
| 20260506000617 | 69 | 10 | 0.0 | 1.0 | 0.00 | 0.00 | 0.00 | 61 | 1007.2 |
| 20260506000114 | 69 | 250 | 2.0 | 2.0 | 0.00 | 0.00 | 0.00 | 61 | 1007.0 |
| 20260505235612 | 70 | 318 | 3.0 | 3.0 | 0.00 | 0.00 | 0.00 | 60 | 1006.9 |
| 20260505235109 | 70 | 156 | 1.0 | 2.0 | 0.00 | 0.00 | 0.00 | 60 | 1006.7 |
| 20260505234606 | 70 | 168 | 3.0 | 3.0 | 0.00 | 0.00 | 0.00 | 60 | 1006.6 |
| 20260505234102 | 70 | 158 | 2.0 | 2.0 | 0.00 | 0.00 | 0.00 | 59 | 1006.7 |
| 20260505233600 | 71 | 128 | 1.0 | 1.0 | 0.00 | 0.00 | 0.00 | 59 | 1006.5 |
| 20260505233057 | 71 | 225 | 3.0 | 3.0 | 0.00 | 0.00 | 0.00 | 58 | 1006.5 |
| 20260505232555 | 71 | 76 | 0.0 | 1.0 | 0.00 | 0.00 | 0.00 | 58 | 1006.4 |
| 20260505232052 | 71 | 233 | 5.0 | 6.0 | 0.00 | 0.00 | 0.00 | 58 | 1006.3 |